Live-Position
3D-Globus wird geladen...
Über Starlink 5852
Group: 3 satellites
Beschreibung wird geladen...
Nächste Überflüge
Passes for default location (London). Set your location on the main map for personalized predictions.
Höhenverlauf
Loading altitude history...
No altitude history available
Zweizeiliger Elementsatz
1 55933U 23037V 26123.40486671 .00000290 00000-0 32120-4 0 9993
2 55933 69.9989 146.5995 0003587 268.5891 91.4857 14.98331104172174
Epoch: 3. Mai 2026 •
Age: 20 hours
Aktueller Status
Höhe 575.2 km
Geschwindigkeit 7.57 km/s
Subsatellitenpunkt 22.64°N,
9.14°E
Startdatum 17. März 2023
Alter 3.1 years
Typ internet
Startgruppe
Falcon 9 •
Group 2-8 •
49 satellites
Starlink 5856
55914
Starlink 5859 55915
Starlink 5796 55916
Starlink 5867 55918
Starlink 5871 55919
Starlink 5862 55920
Starlink 5861 55921
Starlink 5863 55922
Starlink 5854 55923
Starlink 5849 55924
Starlink 5922 55925
Starlink 5921 55926
Starlink 5919 55927
Starlink 5930 55928
Starlink 5896 55930
Starlink 5897 55931
Starlink 5848 55932
Starlink 5927 55934
Starlink 5920 55935
Starlink 5882 55936
...and 28 more
Technische Details
Klassifizierung Payload
Masse 305.00 kg
Trockenmasse 290.00 kg
Gesamtmasse 305.00 kg
Länge 0.20 m
Durchmesser 2.80 m
Spannweite 9.00 m
Form Box + pan
Hersteller SPXS
Bus-Typ Starlink
Phasenstatus In Orbit
Besitzer/Staat SPXS/US
Most Searched
Loading...